Walla Walla, WA

7:18 AM PDT on April 23, 2018 (GMT -0700)
Walla Walla Regional

Weather History for KALW - May, 2013

Change the Weather History Date:

Wednesday, May 22, 2013

  Actual Average Record
Temperature  
Mean Temperature 49 °F 61 °F  
Max Temperature 55 °F 72 °F 95 °F (1979)
Min Temperature 42 °F 50 °F 35 °F (1960)
Degree Days  
Heating Degree Days 16 5  
Month to date heating degree days 168  
Since 1 July heating degree days 4909  
Cooling Degree Days 0 1  
Month to date cooling degree days 19  
Year to date cooling degree days 21  
Moisture  
Dew Point 38 °F    
Average Humidity 69    
Maximum Humidity 85    
Minimum Humidity 49    
Precipitation  
Precipitation 0.17 in 0.07 in 0.48 in (1984)
Month to date precipitation 1.49  
Year to date precipitation 10.00  
Snow  
Snow 0.00 in 0.00 in T in (2004)
Month to date snowfall 0.0  
Year to date snowfall 6.0  
Since 1 July snowfall 11.7  
Snow Depth -    
Sea Level Pressure  
Sea Level Pressure 29.95 in    
Wind  
Wind Speed 13 mph (SW)    
Max Wind Speed 20 mph    
Max Gust Speed 24 mph    
Visibility 10 miles    
Events Rain    
T = Trace of Precipitation, MM = Missing Value Source: NWS Daily Summary

Daily Weather History Graph

Daily Weather History Graph

Search for Another Location

Airport or City:

Astronomy

May. 22, 2013 Rise Set
Actual Time 5:12 AM PDT 8:27 PM PDT
Civil Twilight 4:36 AM PDT 9:03 PM PDT
Nautical Twilight 3:49 AM PDT 9:51 PM PDT
Astronomical Twilight 2:51 AM PDT 10:50 PM PDT
Moon 5:48 PM PDT (5/22) 3:29 AM PDT (5/22)
Length of Visible Light 16h 27m
Length of Day
15h 14m
Waxing Gibbous, 92% of the Moon is Illuminated
May 22
Waxing Gibbous
May 24
Full
May 31
Last Quarter
Jun 8
New
Jun 16
First Quarter

Hourly Weather History & Observations

Time (PDT) Temp. Windchill Dew Point Humidity Pressure Visibility Wind Dir Wind Speed Gust Speed Precip Events Conditions
12:53 AM 46.0 °F 38.8 °F 39.0 °F 76% 29.90 in 10.0 mi SW 18.4 mph 24.2 mph 0.04 in Rain Light Rain
1:53 AM 45.0 °F 37.4 °F 37.0 °F 74% 29.91 in 10.0 mi SW 18.4 mph - 0.03 in Rain Light Rain
2:53 AM 44.1 °F 37.4 °F 37.0 °F 76% 29.92 in 10.0 mi SW 13.8 mph - N/A   Overcast
3:46 AM 44.6 °F 39.2 °F 37.4 °F 76% 29.90 in 10.0 mi South 10.4 mph - N/A   Overcast
3:53 AM 44.1 °F 38.1 °F 37.0 °F 76% 29.91 in 10.0 mi SSW 11.5 mph - N/A   Overcast
4:53 AM 44.1 °F 37.7 °F 35.1 °F 71% 29.91 in 10.0 mi SSW 12.7 mph - N/A   Overcast
5:53 AM 44.1 °F 37.1 °F 35.1 °F 71% 29.91 in 10.0 mi SW 15.0 mph - N/A   Overcast
6:53 AM 44.1 °F 37.4 °F 36.0 °F 73% 29.92 in 10.0 mi South 13.8 mph - N/A   Overcast
7:53 AM 45.0 °F 38.5 °F 35.1 °F 68% 29.92 in 10.0 mi South 13.8 mph - N/A   Overcast
8:53 AM 48.0 °F - 35.1 °F 61% 29.93 in 10.0 mi SW 17.3 mph 24.2 mph N/A   Overcast
9:53 AM 50.0 °F - 34.0 °F 54% 29.92 in 10.0 mi South 16.1 mph 23.0 mph N/A   Scattered Clouds
10:53 AM 51.1 °F - 33.1 °F 50% 29.92 in 10.0 mi SSW 16.1 mph 23.0 mph N/A   Mostly Cloudy
11:53 AM 52.0 °F - 33.1 °F 49% 29.93 in 10.0 mi SW 10.4 mph - N/A   Overcast
12:53 PM 51.1 °F - 37.9 °F 61% 29.94 in 8.0 mi West 10.4 mph - 0.00 in Rain Light Rain
1:46 PM 51.8 °F - 39.2 °F 62% 29.94 in 10.0 mi SW 19.6 mph - 0.01 in Rain Light Rain
1:53 PM 50.0 °F - 39.0 °F 66% 29.95 in 10.0 mi West 17.3 mph - 0.01 in   Overcast
2:53 PM 51.1 °F - 36.0 °F 56% 29.96 in 10.0 mi West 5.8 mph - 0.00 in   Mostly Cloudy
3:36 PM 44.6 °F 39.2 °F 39.2 °F 81% 29.97 in 2.0 mi SW 10.4 mph - 0.07 in Rain Light Rain
3:44 PM 46.4 °F 44.3 °F 39.2 °F 76% 29.96 in 10.0 mi West 4.6 mph - 0.07 in Rain Light Rain
3:53 PM 46.9 °F - 41.0 °F 80% 29.98 in 10.0 mi West 4.6 mph - 0.07 in Rain Light Rain
4:53 PM 53.1 °F - 39.9 °F 61% 29.96 in 10.0 mi South 12.7 mph 20.7 mph 0.00 in   Scattered Clouds
5:53 PM 54.0 °F - 35.1 °F 49% 29.95 in 10.0 mi South 12.7 mph - 0.00 in   Clear
6:53 PM 54.0 °F - 37.0 °F 53% 29.96 in 10.0 mi WSW 6.9 mph - N/A   Mostly Cloudy
7:53 PM 48.9 °F - 42.1 °F 77% 30.00 in 10.0 mi WSW 5.8 mph - N/A   Overcast
8:53 PM 48.0 °F - 43.0 °F 83% 30.01 in 10.0 mi South 6.9 mph - 0.02 in Rain Light Rain
9:53 PM 46.9 °F - 42.1 °F 83% 30.01 in 10.0 mi SSE 6.9 mph - 0.00 in Rain Light Rain
10:53 PM 45.0 °F 41.8 °F 39.9 °F 82% 30.00 in 10.0 mi ESE 5.8 mph - 0.00 in   Clear
11:53 PM 42.1 °F 37.1 °F 37.9 °F 85% 30.00 in 10.0 mi East 8.1 mph - N/A   Clear